Probability
0 0 0 0 0 0 0 0 0 0 0 0 0 0 0 0 0 0 0 0 0 0 0 0 0 0 0 0 0 0 0 0 0 0 0 0 0 0 0 0 0 0 0
0 0 0 0 0 0 0 0 0 0 0 0 0 0 0 0 0 0 0 0 0 0 0 0 0 0 0 0 0 0 0 0 0 0 0 0 0 0 0 0 0 0 0
0 0 0 0 0 0 0 0 0 0 0 0 0 0 0 0 0 0 0 0 0 0 0 0 0 0 0 0 0 0 0 0 0 0 0 0 0 0 0 0 0 0 0
0 0 0 0 0 0 0 0 0 0 0 0 0 0 0 0 0 0 0 0 0 0 0 0 0 0 0 0 0 0 0 0 0 0 0 0 0 0 0 0 0 0 0
0 0 0 0 0 0 0 0 0 0 0 0 0 0 0 0 0 0 0 0 0 0 0 0 0 0 0 0 0 0 0 0 0 0 0 0 0 0 0 0 0 0 0
0 0 0 0 0 0 0 0 0 0 0 0 0 0 0 0 0 0 0 0 0 0 0 0 0 0 0 0 0 0 0 0 0 0 0 0 0 0 0 0 0 0 0
0 0 0 0 0 0 0 0 0 0 0 0 0 0 0 0 0 0 0 0 0 0 0 0 0 0 0 0 0 0 0 0 0 0 0 0 0 0 0 0 0 0 0
0 0 0 0 0 0 0 0 0 0 0 0 0 0 0 0 0 0 0 0 0 0 0 0 0 0 0 0 0 0 0 0 0 0 0 0 0 0 0 0 0 0 0
0 0 0 0 0 0 0 0 0 0 0 0 0 0 0 0 0 0 0 0 0 0 0 0 0 0 0 0 0 0 0 0 0 0 0 0 0 0 0 0 0 0 0
0 0 0 0 0 0 0 0 0 0 0 0 0 0 0 0 0 0 0 0 0 0 0 0 0 0 0 0 0 0 0 0 0 0 0 0 0 0 0 0 0 0 0
0 0 0 0 0 0 0 0 0 0 0 0 0 0 0 0 0 0 0 0 0 0 0 0 0 0 0 0 0 0 0 0 0 0 0 0 0 0 0 0 0 0 0
0 0 0 0 0 0 0 0 0 0 0 0 0 0 0 0 0 0 0 0 0 0 0 0 0 0 0 0 0 0 0 0 0 0 0 0 0 0 0 0 0 0 0
0 0 0 0 0 0 0 0 0 0 0 0 0 0 0 0 0 0 0 0 0 0 0 0 0 0 0 0 0 0 0 0 0 0 0 0 0 0 0 0 0 0 0
0 0 0 0 0 0 0 0 0 0 0 0 0 0 0 0 0 0 0 0 0 0 0 0 0 0 0 0 0 0 0 0 0 0 0 0 0 0 0 0 0 0 0
0 0 0 0 0 0 0 0 0 0 0 0 0 0 0 0 0 0 0 0 0 0 0 0 0 0 0 0 0 0 0 0 0 0 0 0 0 0 0 0 0 0 0
0 0 0 0 0 0 0 0 0 0 0 0 0 0 0 0 0 0 0 0 0 0 0 0 0 0 0 0 0 0 0 0 0 0 0 0 0 0 0 0 0 0 0
0 0 0 0 0 0 0 0 0 0 0 0 0 0 0 0 0 0 0 0 0 0 0 0 0 0 0 0 0 0 0 0 0 0 0 0 0 0 0 0 0 0 0
0 0 0 0 0 0 0 0 0 0 0 0 0 0 0 0 0 0 0 0 0 0 0 0 0 0 0 0 0 0 0 0 0 0 0 0 0 0 0 0 0 0 0
0 0 0 0 0 0 0 0 0 0 0 0 0 0 0 0 0 0 0 0 0 0 0 0 0 0 0 0 0 0 0 0 0 0 0 0 0 0 0 0 0 0 0
0 0 0 0 0 0 0 0 0 0 0 0 0 0 0 0 0 0 0 0 0 0 0 0 0 0 0 0 0 0 0 0 0 0 0 0 0 0 0 0 0 0 0
0 0 0 0 0 0 0 0 0 0 0 0 0 0 0 0 0 0 0 0 0 0 0 0 0 0 0 0 0 0 0 0 0 0 0 0 0 0 0 0 0 0 0
0 0 0 0 0 0 0 0 0 0 0 0 0 0 0 0 0 0 0 0 0 0 0 0 0 0 0 0 0 0 0 0 0 0 0 0 0 0 0 0 0 0 0
0 0 0 0 0 0 0 0 0 0 0 0 0 0 0 0 0 0 0 0 0 0 0 0 0 0 0 0 0 0 0 0 0 0 0 0 0 0 0 0 0 0 0
0 0 0 0 0 0 0 0 0 0 0 0 0 0 0 0 0 0 0 0 0 0 0 0 0 0 0 0 0 0 0 0 0 0 0 0 0 0 0 0 0 0 0
0 0 0 0 0 0 0 0 0 0 0 0 0 0 0 0 0 0 0 0 0 0 0 0 0 0 0 0 0 0 0 0 0 0 0 0 0 0 0 0 0 0 0
0 0 0 0 0 0 0 0 0 0 0 0 0 0 0 0 0 0 0 0 0 0 0 0 0 0 0 0 0 0 0 0 0 0 0 0 0 0 0 0 0 0 0
Wind_Speed
7 9 10 11 13 14 14 14 13 13 13 13 14 14 14 15 15 14 13 12 11 11 11 11 11 12 11 11 11 11 11 11 11 11 11 10 8 6 4 2 3 5 6
8 10 11 10 12 13 14 15 14 14 14 15 15 15 15 15 15 14 14 14 13 13 13 13 13 14 13 12 11 11 12 11 11 10 11 11 10 8 5 2 1 3 7
7 10 10 10 11 13 14 14 14 14 14 15 15 15 15 14 14 14 14 14 14 14 14 14 15 15 14 13 13 12 12 12 13 12 13 7 6 2 2 0 1 3 6
8 10 8 9 11 12 12 13 13 13 13 13 13 13 13 13 13 13 13 14 14 13 13 14 14 14 14 14 13 13 14 14 14 14 8 5 5 4 4 4 5 5 5
9 10 7 10 11 11 12 12 13 13 13 13 13 13 13 13 13 13 14 14 14 14 14 14 14 14 14 14 13 14 14 14 15 12 7 5 5 6 8 8 8 7 7
8 9 7 10 11 11 11 12 12 12 13 13 13 13 13 13 14 14 14 14 15 15 14 14 14 15 14 14 14 14 14 15 12 7 7 6 5 7 9 9 9 9 8
8 8 7 10 11 12 12 12 12 12 12 12 13 13 13 14 14 15 15 15 15 15 15 15 15 15 15 15 15 15 15 16 9 6 6 6 5 7 9 10 11 10 10
8 8 7 10 11 11 11 11 12 12 12 12 12 13 13 14 14 15 15 15 15 15 16 16 16 16 16 16 15 15 16 14 10 9 7 5 6 7 9 11 12 12 12
8 8 7 6 8 10 11 11 11 12 11 11 11 11 11 12 13 13 14 14 14 14 15 16 16 17 17 16 16 16 17 17 7 5 8 5 10 11 11 12 13 14 13
7 7 7 7 8 7 7 10 11 11 10 10 9 6 4 7 10 12 11 13 14 14 15 16 16 17 17 16 17 17 17 12 8 7 5 6 13 14 14 15 15 15 15
7 7 7 7 7 8 7 9 8 8 6 6 5 2 2 4 5 6 9 12 14 14 15 16 16 17 16 16 17 18 12 6 8 5 5 11 16 16 16 17 17 17 17
9 8 7 7 7 7 7 6 5 5 4 3 3 2 3 3 3 5 7 10 12 13 14 16 16 14 12 6 10 12 5 7 6 5 7 16 17 17 17 18 18 18 18
10 9 8 8 8 6 4 5 3 3 3 4 3 2 2 2 3 3 2 4 5 8 6 8 8 5 6 5 5 5 6 5 4 5 7 17 18 18 18 18 18 19 19
11 11 9 9 8 7 5 4 4 3 3 3 3 2 2 2 2 2 2 3 3 3 4 4 3 5 6 6 6 7 7 5 5 5 7 16 19 20 20 20 19 19 20
12 12 10 9 9 7 6 5 5 4 4 4 4 2 2 3 3 3 2 2 3 3 4 4 4 5 5 6 6 7 7 7 7 7 6 14 19 20 21 20 20 20 20
13 12 11 10 9 8 6 5 5 4 4 4 4 4 3 3 3 2 2 2 3 3 3 3 5 5 5 5 6 6 7 7 7 8 7 9 16 19 20 21 21 21 21
12 13 12 11 10 9 8 7 5 5 5 4 4 5 4 3 3 2 2 2 2 2 3 3 4 4 5 5 6 7 6 7 8 9 8 6 6 12 16 19 21 22 22
12 13 13 12 11 10 8 7 5 5 5 4 5 5 5 4 3 2 2 2 2 2 2 3 3 4 4 5 6 6 6 7 10 9 7 6 5 5 9 17 19 21 22
13 13 13 11 11 10 8 7 6 5 5 5 5 5 6 5 4 3 2 1 1 1 1 3 3 3 5 6 6 6 6 8 9 9 7 7 6 5 5 10 14 16 21
13 13 13 11 10 9 7 5 5 5 4 4 5 5 7 5 5 3 2 1 1 1 1 2 3 4 4 6 8 8 8 10 9 6 6 4 3 5 5 6 6 8 16
13 14 15 13 11 9 8 7 6 6 6 5 5 7 8 7 6 4 3 2 1 1 1 2 3 4 4 4 5 6 7 8 7 2 2 4 5 6 5 5 4 5 7
15 15 15 15 14 12 9 7 5 6 5 6 5 6 7 7 7 5 5 3 2 1 1 2 3 2 3 3 3 5 7 7 4 5 6 6 6 4 3 6 7 8 7
15 17 15 15 14 12 10 7 5 4 3 4 6 6 7 8 7 6 6 4 3 3 2 3 2 3 3 3 2 2 3 5 7 6 5 5 3 3 5 6 8 7 8
15 13 13 14 13 13 12 11 11 9 8 8 7 6 7 8 7 7 6 5 4 3 4 4 3 3 3 3 3 3 4 3 5 9 5 4 5 7 6 7 7 7 9
13 13 13 13 13 13 13 13 12 9 7 6 6 9 8 7 7 7 7 6 5 4 4 4 3 3 3 4 3 3 3 4 6 7 12 9 6 5 5 6 6 7 9
11 11 13 14 14 14 14 13 13 11 9 9 9 9 7 5 6 8 7 6 5 4 4 4 4 4 4 5 4 4 4 4 4 5 10 17 17 9 7 6 7 7 8
Wind_Direction
90 75 46 51 57 65 70 72 73 74 76 75 74 70 68 66 63 59 54 50 47 43 40 36 34 35 33 28 23 18 15 11 6 358 346 329 305 282 277 312 323 323 359
97 88 60 61 65 68 70 70 69 69 68 67 66 63 61 60 59 56 51 46 44 42 41 38 36 34 31 25 21 17 14 9 0 347 331 312 287 258 241 246 307 312 334
98 94 75 67 73 74 73 73 71 70 69 69 67 65 62 59 58 55 51 46 43 41 39 37 35 32 27 24 20 16 12 5 355 341 322 299 300 266 188 132 326 308 319
89 79 76 80 82 81 81 81 79 77 75 74 72 69 66 63 59 56 51 46 42 39 36 34 30 28 23 20 18 16 12 3 348 331 315 326 345 40 47 17 356 342 326
98 97 92 95 94 91 88 86 84 82 79 76 72 69 65 62 58 54 49 44 40 35 32 29 26 23 19 16 13 11 7 358 341 323 315 332 341 24 22 10 356 343 329
106 103 105 106 103 99 94 91 87 83 79 75 71 67 63 59 55 51 47 43 38 34 29 26 21 17 13 10 7 4 358 350 334 326 325 328 338 10 5 357 348 336 325
114 108 109 105 105 103 99 95 90 85 81 77 73 68 64 60 55 50 45 41 37 33 28 23 18 13 9 5 2 0 354 343 331 315 312 314 325 356 350 346 340 334 327
113 110 104 99 99 100 99 96 92 88 83 79 75 70 66 61 56 49 43 39 35 30 25 20 14 9 5 2 1 358 348 339 330 315 307 306 337 347 337 337 336 332 328
128 131 131 127 106 101 101 99 96 91 86 80 75 71 68 65 58 51 43 38 35 30 25 20 14 8 4 1 1 356 345 336 328 319 326 342 5 351 334 331 328 326 324
146 149 150 148 136 126 110 106 103 98 93 86 78 71 65 74 68 59 43 39 35 30 26 21 14 11 5 3 2 356 345 343 353 337 327 344 357 345 334 328 322 318 315
168 162 158 155 150 141 135 129 122 116 116 114 102 96 44 54 52 68 48 38 34 28 24 20 15 14 9 4 359 354 353 356 333 323 319 346 345 337 328 322 318 313 310
182 174 165 163 153 152 151 152 160 152 142 112 84 69 65 82 61 59 54 39 32 29 21 17 14 13 7 354 349 352 349 339 332 332 331 335 333 328 322 317 313 310 307
179 178 172 167 158 160 149 159 154 134 132 116 89 78 90 78 75 57 51 32 26 30 18 6 3 1 354 343 337 336 336 335 328 325 321 319 320 320 317 314 311 307 304
179 179 173 164 158 161 159 155 145 152 152 134 123 54 90 94 72 65 62 32 33 24 10 1 346 349 342 334 335 330 331 328 319 312 304 313 317 316 314 313 310 307 303
183 175 172 161 162 162 160 161 164 158 153 136 139 105 62 95 83 68 65 43 34 25 14 350 339 337 331 326 323 322 320 315 307 304 306 309 313 315 315 314 312 309 306
182 171 165 164 165 162 164 168 157 153 146 146 141 124 87 91 96 85 72 50 47 26 360 333 328 326 318 315 312 312 306 301 299 299 298 306 310 314 317 317 316 314 311
177 166 165 167 167 168 171 171 160 154 157 155 141 140 138 120 109 110 97 72 60 12 346 332 328 323 318 319 314 308 301 297 292 290 289 287 296 307 313 318 320 318 316
171 167 167 173 171 174 173 167 155 158 161 155 150 153 147 136 129 129 115 97 64 22 354 331 320 326 318 314 306 299 296 288 282 278 275 275 279 286 299 305 311 312 313
171 168 167 170 170 174 170 160 155 157 162 158 158 160 152 149 153 146 130 127 77 39 349 321 332 332 314 308 300 293 289 282 276 274 267 265 263 264 268 293 302 303 307
167 165 166 168 170 168 163 156 150 156 170 168 167 162 155 159 162 157 156 157 93 35 325 325 324 310 297 297 304 297 284 278 269 261 260 270 289 294 298 300 300 298 305
165 167 169 172 175 171 171 173 167 178 179 180 175 168 165 164 164 168 161 160 163 214 289 317 307 308 308 309 312 304 290 275 268 255 327 326 301 289 289 298 306 310 312
171 172 174 177 180 179 181 180 169 164 183 183 175 170 170 168 171 175 168 167 173 195 278 281 288 305 306 335 336 321 328 326 345 344 301 277 276 289 318 322 312 298 293
178 179 180 181 181 180 174 171 163 144 132 162 175 178 180 174 172 168 169 168 176 188 221 244 258 263 272 303 282 295 312 306 311 281 273 279 280 326 305 292 288 293 298
183 176 178 180 181 180 176 180 178 180 183 185 179 178 177 174 173 171 170 171 179 191 212 229 232 226 240 262 279 242 233 265 301 307 282 254 291 286 276 291 298 299 301
174 175 180 181 185 182 182 185 190 197 191 170 163 165 169 174 176 172 168 169 180 194 209 219 234 233 224 231 239 259 268 267 247 273 295 295 278 260 279 286 291 293 294
171 176 182 188 191 186 186 189 195 198 186 170 167 169 172 174 175 173 168 170 179 190 205 213 224 236 239 242 241 236 237 245 255 262 286 302 303 296 282 268 273 278 279